| time (UTC) | temp F | wind direction | speed knots | gust knots | rain 1hr in | rain 24hr in | rain mn in | humidity % | barometer mb |
| 20260508142705 | 73 | 135 | 5.2 | 10.4 | 0.00 | 0.00 | 0.00 | 43 | 1008.8 |
| 20260508142205 | 73 | 94 | 4.3 | 10.4 | 0.00 | 0.00 | 0.00 | 42 | 1008.8 |
| 20260508140704 | 72 | 208 | 7.0 | 13.0 | 0.00 | 0.00 | 0.00 | 42 | 1009.0 |
| 20260508140205 | 72 | 220 | 5.2 | 13.0 | 0.00 | 0.00 | 0.00 | 42 | 1008.9 |
| 20260508135705 | 72 | 172 | 5.2 | 11.3 | 0.00 | 0.00 | 0.00 | 43 | 1009.0 |
| 20260508135204 | 72 | 219 | 6.1 | 10.4 | 0.00 | 0.00 | 0.00 | 43 | 1009.2 |
| 20260508134705 | 72 | 181 | 5.2 | 10.4 | 0.00 | 0.00 | 0.00 | 42 | 1009.2 |
| 20260508134204 | 72 | 227 | 4.3 | 12.2 | 0.00 | 0.00 | 0.00 | 43 | 1009.2 |
| 20260508133705 | 72 | 150 | 5.2 | 12.2 | 0.00 | 0.00 | 0.00 | 42 | 1009.3 |
| 20260508133205 | 71 | 146 | 6.1 | 11.3 | 0.00 | 0.00 | 0.00 | 43 | 1009.3 |
| 20260508132705 | 71 | 227 | 4.3 | 11.3 | 0.00 | 0.00 | 0.00 | 43 | 1009.3 |
| 20260508132205 | 70 | 232 | 4.3 | 11.3 | 0.00 | 0.00 | 0.00 | 46 | 1009.2 |
| 20260508131705 | 70 | 175 | 5.2 | 11.3 | 0.00 | 0.00 | 0.00 | 44 | 1009.3 |
| 20260508131205 | 71 | 224 | 4.3 | 10.4 | 0.00 | 0.00 | 0.00 | 44 | 1009.4 |
| 20260508130705 | 71 | 203 | 4.3 | 7.8 | 0.00 | 0.00 | 0.00 | 44 | 1009.4 |
| 20260508130205 | 71 | 142 | 4.3 | 9.6 | 0.00 | 0.00 | 0.00 | 45 | 1009.5 |
| 20260508125205 | 71 | 279 | 6.1 | 10.4 | 0.00 | 0.00 | 0.00 | 46 | 1009.7 |
| 20260508124705 | 71 | 291 | 5.2 | 10.4 | 0.00 | 0.00 | 0.00 | 46 | 1009.8 |
| 20260508124205 | 70 | 208 | 5.2 | 9.6 | 0.00 | 0.00 | 0.00 | 48 | 1009.8 |
| 20260508123705 | 71 | 150 | 4.3 | 10.4 | 0.00 | 0.00 | 0.00 | 46 | 1009.9 |
| 20260508123205 | 71 | 223 | 5.2 | 11.3 | 0.00 | 0.00 | 0.00 | 49 | 1009.9 |
| 20260508122705 | 70 | 246 | 6.1 | 11.3 | 0.00 | 0.00 | 0.00 | 50 | 1009.8 |
| 20260508121206 | 69 | 176 | 5.2 | 9.6 | 0.00 | 0.00 | 0.00 | 51 | 1010.1 |
| 20260508120206 | 69 | 238 | 6.1 | 9.6 | 0.00 | 0.00 | 0.00 | 51 | 1010.2 |
| 20260508115705 | 69 | 259 | 4.3 | 10.4 | 0.00 | 0.00 | 0.00 | 50 | 1010.2 |
| 20260508115204 | 68 | 193 | 4.3 | 10.4 | 0.00 | 0.00 | 0.00 | 52 | 1010.2 |
| 20260508114705 | 69 | 184 | 6.1 | 10.4 | 0.00 | 0.00 | 0.00 | 50 | 1010.3 |
| 20260508113705 | 69 | 153 | 4.3 | 13.9 | 0.00 | 0.00 | 0.00 | 51 | 1010.2 |
| 20260508113205 | 69 | 231 | 5.2 | 13.9 | 0.00 | 0.00 | 0.00 | 50 | 1010.3 |
| 20260508112704 | 69 | 198 | 6.1 | 13.9 | 0.00 | 0.00 | 0.00 | 50 | 1010.2 |
| 20260508111705 | 69 | 269 | 4.3 | 13.0 | 0.00 | 0.00 | 0.00 | 50 | 1010.3 |
| 20260508111205 | 69 | 246 | 5.2 | 13.0 | 0.00 | 0.00 | 0.00 | 50 | 1010.4 |
| 20260508110704 | 69 | 226 | 4.3 | 7.8 | 0.00 | 0.00 | 0.00 | 51 | 1010.5 |
| 20260508110206 | 68 | 212 | 3.5 | 10.4 | 0.00 | 0.00 | 0.00 | 50 | 1010.4 |
| 20260508105704 | 68 | 179 | 5.2 | 12.2 | 0.00 | 0.00 | 0.00 | 49 | 1010.5 |
| 20260508105204 | 68 | 229 | 5.2 | 12.2 | 0.00 | 0.00 | 0.00 | 49 | 1010.6 |
| 20260508104704 | 68 | 220 | 4.3 | 12.2 | 0.00 | 0.00 | 0.00 | 50 | 1010.5 |
| 20260508104205 | 67 | 134 | 4.3 | 11.3 | 0.00 | 0.00 | 0.00 | 52 | 1010.4 |
| 20260508103705 | 67 | 211 | 4.3 | 11.3 | 0.00 | 0.00 | 0.00 | 53 | 1010.6 |
| 20260508103205 | 66 | 211 | 4.3 | 9.6 | 0.00 | 0.00 | 0.00 | 52 | 1010.3 |
| 20260508102704 | 66 | 266 | 5.2 | 13.9 | 0.00 | 0.00 | 0.00 | 51 | 1010.4 |
| 20260508101705 | 66 | 216 | 5.2 | 9.6 | 0.00 | 0.00 | 0.00 | 52 | 1010.4 |
| 20260508101205 | 66 | 194 | 5.2 | 9.6 | 0.00 | 0.00 | 0.00 | 54 | 1010.6 |
| 20260508100705 | 66 | 220 | 4.3 | 9.6 | 0.00 | 0.00 | 0.00 | 54 | 1010.6 |
| 20260508100205 | 66 | 205 | 3.5 | 8.7 | 0.00 | 0.00 | 0.00 | 54 | 1010.5 |
| 20260508095705 | 66 | 213 | 4.3 | 8.7 | 0.00 | 0.00 | 0.00 | 53 | 1010.7 |
| 20260508095205 | 66 | 209 | 4.3 | 8.7 | 0.00 | 0.00 | 0.00 | 53 | 1010.8 |
| 20260508094705 | 66 | 227 | 3.5 | 9.6 | 0.00 | 0.00 | 0.00 | 56 | 1010.7 |
| 20260508093705 | 65 | 211 | 4.3 | 10.4 | 0.00 | 0.00 | 0.00 | 58 | 1011.0 |
| 20260508092705 | 65 | 221 | 6.1 | 11.3 | 0.00 | 0.00 | 0.00 | 56 | 1011.0 |
| 20260508091704 | 65 | 223 | 4.3 | 11.3 | 0.00 | 0.00 | 0.00 | 59 | 1011.0 |
| 20260508091206 | 64 | 223 | 5.2 | 11.3 | 0.00 | 0.00 | 0.00 | 62 | 1011.0 |
| 20260508090704 | 64 | 233 | 5.2 | 12.2 | 0.00 | 0.00 | 0.00 | 62 | 1011.0 |
| 20260508090205 | 64 | 226 | 7.0 | 12.2 | 0.00 | 0.00 | 0.00 | 60 | 1011.0 |
| 20260508085705 | 64 | 236 | 6.1 | 12.2 | 0.00 | 0.00 | 0.00 | 61 | 1011.0 |
| 20260508085205 | 64 | 215 | 6.1 | 12.2 | 0.00 | 0.00 | 0.00 | 63 | 1011.0 |
| 20260508084205 | 63 | 225 | 6.1 | 12.2 | 0.00 | 0.00 | 0.00 | 64 | 1010.8 |
| 20260508083705 | 63 | 234 | 6.1 | 12.2 | 0.00 | 0.00 | 0.00 | 62 | 1010.9 |
| 20260508083205 | 64 | 232 | 6.1 | 10.4 | 0.00 | 0.00 | 0.00 | 65 | 1010.8 |
| 20260508082705 | 63 | 229 | 5.2 | 10.4 | 0.00 | 0.00 | 0.00 | 66 | 1010.8 |
| 20260508081205 | 62 | 234 | 4.3 | 9.6 | 0.00 | 0.00 | 0.00 | 67 | 1010.9 |
| 20260508080705 | 62 | 229 | 3.5 | 8.7 | 0.00 | 0.00 | 0.00 | 70 | 1010.8 |
| 20260508080206 | 62 | 232 | 4.3 | 8.7 | 0.00 | 0.00 | 0.00 | 70 | 1010.8 |
| 20260508075204 | 61 | 254 | 4.3 | 8.7 | 0.00 | 0.00 | 0.00 | 71 | 1010.6 |
| 20260508074705 | 61 | 176 | 3.5 | 8.7 | 0.00 | 0.00 | 0.00 | 72 | 1010.6 |
| 20260508073205 | 60 | 188 | 2.6 | 5.2 | 0.00 | 0.00 | 0.00 | 74 | 1010.4 |
| 20260508072705 | 60 | 227 | 2.6 | 5.2 | 0.00 | 0.00 | 0.00 | 74 | 1010.4 |
| 20260508071705 | 60 | 155 | 2.6 | 5.2 | 0.00 | 0.00 | 0.00 | 76 | 1010.3 |
| 20260508071205 | 60 | 219 | 2.6 | 5.2 | 0.00 | 0.00 | 0.00 | 75 | 1010.2 |
| 20260508070205 | 59 | 194 | 2.6 | 4.3 | 0.00 | 0.00 | 0.00 | 77 | 1010.2 |
| 20260508065704 | 59 | 175 | 1.7 | 4.3 | 0.00 | 0.00 | 0.00 | 78 | 1010.1 |
| 20260508064205 | 58 | 190 | 2.6 | 5.2 | 0.00 | 0.00 | 0.00 | 80 | 1010.0 |
| 20260508063704 | 57 | 222 | 2.6 | 5.2 | 0.00 | 0.00 | 0.00 | 81 | 1010.0 |
| 20260508062704 | 57 | 215 | 2.6 | 5.2 | 0.00 | 0.00 | 0.00 | 82 | 1010.0 |
| 20260508061732 | 56 | 232 | 3.5 | 5.2 | 0.00 | 0.00 | 0.00 | 83 | 1009.9 |
| 20260508060704 | 56 | 234 | 3.5 | 5.2 | 0.00 | 0.00 | 0.00 | 83 | 1009.9 |
| 20260508060205 | 56 | 222 | 3.5 | 5.2 | 0.00 | 0.00 | 0.00 | 83 | 1009.8 |
| 20260508055704 | 55 | 229 | 2.6 | 5.2 | 0.00 | 0.00 | 0.00 | 84 | 1009.9 |
| 20260508055204 | 55 | 257 | 2.6 | 5.2 | 0.00 | 0.00 | 0.00 | 84 | 1009.7 |
| 20260508054205 | 54 | 232 | 2.6 | 4.3 | 0.00 | 0.00 | 0.00 | 85 | 1009.7 |
| 20260508053705 | 54 | 227 | 2.6 | 4.3 | 0.00 | 0.00 | 0.00 | 85 | 1009.7 |
| 20260508053205 | 54 | 244 | 2.6 | 4.3 | 0.00 | 0.00 | 0.00 | 85 | 1009.6 |
| 20260508052705 | 54 | 234 | 2.6 | 3.5 | 0.00 | 0.00 | 0.00 | 85 | 1009.5 |
| 20260508052205 | 54 | 242 | 1.7 | 3.5 | 0.00 | 0.00 | 0.00 | 84 | 1009.4 |
| 20260508050705 | 54 | 241 | 1.7 | 3.5 | 0.00 | 0.00 | 0.00 | 84 | 1009.0 |
| 20260508050205 | 54 | 241 | 1.7 | 3.5 | 0.00 | 0.00 | 0.00 | 84 | 1009.1 |
| 20260508045704 | 54 | 241 | 1.7 | 3.5 | 0.00 | 0.00 | 0.00 | 84 | 1008.9 |
| 20260508045204 | 54 | 227 | 1.7 | 3.5 | 0.00 | 0.00 | 0.00 | 83 | 1008.9 |
| 20260508044705 | 55 | 229 | 2.6 | 3.5 | 0.00 | 0.00 | 0.00 | 83 | 1008.9 |
| 20260508044205 | 55 | 232 | 2.6 | 4.3 | 0.00 | 0.00 | 0.00 | 82 | 1008.9 |
| 20260508043705 | 55 | 219 | 2.6 | 6.1 | 0.00 | 0.00 | 0.00 | 81 | 1009.0 |
| 20260508043205 | 56 | 207 | 2.6 | 6.1 | 0.00 | 0.00 | 0.00 | 80 | 1008.9 |
| 20260508042705 | 56 | 207 | 2.6 | 6.1 | 0.00 | 0.00 | 0.00 | 80 | 1008.9 |
| 20260508042205 | 57 | 153 | 3.5 | 6.1 | 0.00 | 0.00 | 0.00 | 80 | 1008.7 |
| 20260508041204 | 56 | 157 | 2.6 | 6.1 | 0.00 | 0.00 | 0.00 | 80 | 1008.4 |
| 20260508040705 | 56 | 154 | 2.6 | 6.1 | 0.00 | 0.00 | 0.00 | 80 | 1008.5 |
| 20260508040205 | 56 | 172 | 2.6 | 6.1 | 0.00 | 0.00 | 0.00 | 80 | 1008.7 |
| 20260508035704 | 56 | 167 | 2.6 | 6.1 | 0.00 | 0.00 | 0.00 | 80 | 1008.7 |
| 20260508034705 | 56 | 179 | 2.6 | 6.1 | 0.00 | 0.00 | 0.00 | 79 | 1008.8 |
| 20260508033704 | 56 | 175 | 2.6 | 5.2 | 0.00 | 0.00 | 0.00 | 79 | 1008.8 |
| 20260508033205 | 56 | 160 | 2.6 | 5.2 | 0.00 | 0.00 | 0.00 | 79 | 1008.7 |
| 20260508032704 | 56 | 129 | 2.6 | 5.2 | 0.00 | 0.00 | 0.00 | 79 | 1008.7 |
| 20260508032205 | 56 | 136 | 2.6 | 5.2 | 0.00 | 0.00 | 0.00 | 79 | 1008.7 |
| 20260508031705 | 57 | 134 | 2.6 | 5.2 | 0.00 | 0.00 | 0.00 | 78 | 1008.8 |
| 20260508031205 | 57 | 130 | 3.5 | 8.7 | 0.00 | 0.00 | 0.00 | 78 | 1008.8 |
| 20260508030705 | 57 | 112 | 3.5 | 8.7 | 0.00 | 0.00 | 0.00 | 78 | 1008.8 |
| 20260508030205 | 57 | 161 | 3.5 | 8.7 | 0.00 | 0.00 | 0.00 | 78 | 1008.9 |
| 20260508025727 | 57 | 165 | 3.5 | 6.1 | 0.00 | 0.00 | 0.00 | 78 | 1009.0 |
| 20260508024205 | 57 | 166 | 2.6 | 6.1 | 0.00 | 0.00 | 0.00 | 78 | 1009.0 |
| 20260508023704 | 57 | 152 | 2.6 | 7.0 | 0.00 | 0.00 | 0.00 | 78 | 1009.1 |
| 20260508023205 | 57 | 135 | 3.5 | 7.0 | 0.00 | 0.00 | 0.00 | 78 | 1008.9 |
| 20260508022705 | 57 | 132 | 3.5 | 7.0 | 0.00 | 0.00 | 0.00 | 77 | 1009.0 |
| 20260508022205 | 57 | 159 | 3.5 | 6.1 | 0.00 | 0.00 | 0.00 | 77 | 1009.1 |
| 20260508021705 | 57 | 172 | 3.5 | 7.0 | 0.00 | 0.00 | 0.00 | 78 | 1009.1 |
| 20260508020705 | 58 | 161 | 3.5 | 7.0 | 0.00 | 0.00 | 0.00 | 78 | 1009.2 |
| 20260508020205 | 58 | 156 | 3.5 | 6.1 | 0.00 | 0.00 | 0.00 | 78 | 1009.1 |
| 20260508015205 | 58 | 153 | 3.5 | 6.1 | 0.00 | 0.00 | 0.00 | 78 | 1009.2 |
| 20260508014704 | 58 | 135 | 3.5 | 6.1 | 0.00 | 0.00 | 0.00 | 78 | 1009.2 |
| 20260508014205 | 58 | 138 | 3.5 | 6.1 | 0.00 | 0.00 | 0.00 | 78 | 1009.2 |
| 20260508013705 | 57 | 153 | 2.6 | 6.1 | 0.00 | 0.00 | 0.00 | 78 | 1009.2 |
| 20260508013205 | 57 | 158 | 2.6 | 6.1 | 0.00 | 0.00 | 0.00 | 78 | 1009.4 |
| 20260508012705 | 57 | 166 | 2.6 | 5.2 | 0.00 | 0.00 | 0.00 | 79 | 1009.4 |
| 20260508012204 | 57 | 172 | 2.6 | 4.3 | 0.00 | 0.00 | 0.00 | 79 | 1009.4 |
| 20260508011704 | 56 | 182 | 2.6 | 4.3 | 0.00 | 0.00 | 0.00 | 79 | 1009.4 |
| 20260508011205 | 56 | 168 | 2.6 | 4.3 | 0.00 | 0.00 | 0.00 | 79 | 1009.4 |
| 20260508010704 | 56 | 208 | 2.6 | 4.3 | 0.00 | 0.00 | 0.00 | 79 | 1009.4 |
| 20260508010205 | 57 | 191 | 2.6 | 4.3 | 0.00 | 0.00 | 0.00 | 79 | 1009.4 |
| 20260508005205 | 57 | 193 | 2.6 | 4.3 | 0.00 | 0.00 | 0.00 | 79 | 1009.4 |
| 20260508004705 | 57 | 180 | 1.7 | 4.3 | 0.00 | 0.00 | 0.00 | 79 | 1009.5 |
| 20260508004205 | 57 | 182 | 1.7 | 4.3 | 0.00 | 0.00 | 0.00 | 79 | 1009.7 |
| 20260508003204 | 57 | 190 | 2.6 | 5.2 | 0.00 | 0.00 | 0.00 | 78 | 1009.7 |
| 20260508002705 | 58 | 189 | 2.6 | 5.2 | 0.00 | 0.00 | 0.00 | 78 | 1009.8 |
| 20260508002204 | 58 | 186 | 2.6 | 5.2 | 0.00 | 0.00 | 0.00 | 78 | 1009.7 |
| 20260508001705 | 58 | 177 | 2.6 | 6.1 | 0.00 | 0.00 | 0.00 | 77 | 1009.6 |
| 20260508000705 | 58 | 154 | 2.6 | 6.1 | 0.00 | 0.00 | 0.00 | 78 | 1009.6 |
| 20260508000205 | 58 | 188 | 1.7 | 4.3 | 0.00 | 0.00 | 0.00 | 78 | 1009.7 |
| 20260507235705 | 57 | 170 | 1.7 | 4.3 | 0.00 | 0.00 | 0.00 | 78 | 1009.6 |
| 20260507235204 | 57 | 181 | 1.7 | 4.3 | 0.00 | 0.00 | 0.00 | 78 | 1009.6 |
| 20260507234705 | 57 | 190 | 2.6 | 6.1 | 0.00 | 0.00 | 0.00 | 78 | 1009.7 |
| 20260507234205 | 58 | 192 | 2.6 | 6.1 | 0.00 | 0.00 | 0.00 | 77 | 1009.8 |
| 20260507233205 | 58 | 182 | 3.5 | 5.2 | 0.00 | 0.00 | 0.00 | 76 | 1009.9 |
| 20260507232704 | 58 | 191 | 2.6 | 5.2 | 0.00 | 0.00 | 0.00 | 76 | 1009.9 |
| 20260507232205 | 58 | 196 | 2.6 | 5.2 | 0.00 | 0.00 | 0.00 | 76 | 1009.8 |
| 20260507231705 | 58 | 182 | 2.6 | 5.2 | 0.00 | 0.00 | 0.00 | 76 | 1009.8 |
| 20260507231205 | 58 | 187 | 2.6 | 5.2 | 0.00 | 0.00 | 0.00 | 76 | 1009.8 |
| 20260507230704 | 58 | 178 | 3.5 | 7.0 | 0.00 | 0.00 | 0.00 | 76 | 1009.8 |
| 20260507230224 | 59 | 182 | 3.5 | 7.0 | 0.00 | 0.00 | 0.00 | 76 | 1010.1 |
| 20260507225705 | 59 | 167 | 3.5 | 7.0 | 0.00 | 0.00 | 0.00 | 76 | 1010.1 |
| 20260507224705 | 58 | 165 | 2.6 | 5.2 | 0.00 | 0.00 | 0.00 | 77 | 1010.0 |
| 20260507223705 | 58 | 186 | 2.6 | 5.2 | 0.00 | 0.00 | 0.00 | 77 | 1010.2 |
| 20260507223205 | 58 | 187 | 2.6 | 5.2 | 0.00 | 0.00 | 0.00 | 77 | 1010.2 |
| 20260507222704 | 58 | 205 | 2.6 | 5.2 | 0.00 | 0.00 | 0.00 | 77 | 1010.3 |
| 20260507222205 | 58 | 186 | 2.6 | 5.2 | 0.00 | 0.00 | 0.00 | 76 | 1010.4 |
| 20260507221206 | 58 | 174 | 3.5 | 5.2 | 0.00 | 0.00 | 0.00 | 76 | 1010.4 |
| 20260507220704 | 58 | 175 | 2.6 | 4.3 | 0.00 | 0.00 | 0.00 | 76 | 1010.4 |
| 20260507220206 | 58 | 180 | 2.6 | 3.5 | 0.00 | 0.00 | 0.00 | 75 | 1010.3 |
| 20260507215704 | 58 | 184 | 2.6 | 3.5 | 0.00 | 0.00 | 0.00 | 74 | 1010.3 |
| 20260507215205 | 58 | 180 | 2.6 | 3.5 | 0.00 | 0.00 | 0.00 | 73 | 1010.4 |
| 20260507214705 | 59 | 219 | 2.6 | 2.6 | 0.00 | 0.00 | 0.00 | 72 | 1010.3 |
| 20260507213704 | 59 | 235 | 1.7 | 3.5 | 0.00 | 0.00 | 0.00 | 72 | 1010.2 |
| 20260507213204 | 59 | 235 | 1.7 | 3.5 | 0.00 | 0.00 | 0.00 | 72 | 1010.3 |
| 20260507212704 | 59 | 235 | 2.6 | 4.3 | 0.00 | 0.00 | 0.00 | 72 | 1010.4 |
| 20260507212205 | 59 | 244 | 2.6 | 4.3 | 0.00 | 0.00 | 0.00 | 71 | 1010.4 |
| 20260507211705 | 59 | 237 | 2.6 | 4.3 | 0.00 | 0.00 | 0.00 | 71 | 1010.4 |
| 20260507211205 | 59 | 235 | 2.6 | 4.3 | 0.00 | 0.00 | 0.00 | 70 | 1010.2 |
| 20260507210205 | 60 | 250 | 2.6 | 6.1 | 0.00 | 0.00 | 0.00 | 69 | 1010.1 |
| 20260507204705 | 60 | 252 | 3.5 | 5.2 | 0.00 | 0.00 | 0.00 | 68 | 1009.8 |
| 20260507203705 | 60 | 260 | 3.5 | 6.1 | 0.00 | 0.00 | 0.00 | 68 | 1009.9 |
| 20260507203205 | 60 | 269 | 3.5 | 6.1 | 0.00 | 0.00 | 0.00 | 67 | 1009.9 |
| 20260507202705 | 60 | 269 | 2.6 | 4.3 | 0.00 | 0.00 | 0.00 | 67 | 1009.8 |
| 20260507202205 | 60 | 275 | 2.6 | 5.2 | 0.00 | 0.00 | 0.00 | 67 | 1009.8 |
| 20260507201705 | 60 | 280 | 2.6 | 7.0 | 0.00 | 0.00 | 0.00 | 66 | 1009.8 |
| 20260507200205 | 60 | 268 | 3.5 | 6.1 | 0.00 | 0.00 | 0.00 | 66 | 1009.8 |
| 20260507195205 | 61 | 250 | 3.5 | 7.0 | 0.00 | 0.00 | 0.00 | 66 | 1009.9 |
| 20260507194705 | 61 | 248 | 3.5 | 7.0 | 0.00 | 0.00 | 0.00 | 66 | 1009.8 |
| 20260507194205 | 61 | 273 | 3.5 | 7.8 | 0.00 | 0.00 | 0.00 | 66 | 1009.9 |
| 20260507193705 | 61 | 242 | 4.3 | 7.8 | 0.00 | 0.00 | 0.00 | 66 | 1009.8 |
| 20260507193205 | 61 | 246 | 4.3 | 7.8 | 0.00 | 0.00 | 0.00 | 66 | 1009.7 |
| 20260507192704 | 62 | 267 | 4.3 | 8.7 | 0.00 | 0.00 | 0.00 | 66 | 1009.6 |
| 20260507192205 | 62 | 247 | 5.2 | 10.4 | 0.00 | 0.00 | 0.00 | 66 | 1009.6 |
| 20260507191704 | 62 | 230 | 5.2 | 10.4 | 0.00 | 0.00 | 0.00 | 66 | 1009.6 |
| 20260507191205 | 62 | 228 | 5.2 | 8.7 | 0.00 | 0.00 | 0.00 | 65 | 1009.6 |
| 20260507190705 | 62 | 254 | 4.3 | 11.3 | 0.00 | 0.00 | 0.00 | 64 | 1009.6 |
| 20260507190226 | 63 | 256 | 5.2 | 12.2 | 0.00 | 0.00 | 0.00 | 63 | 1009.6 |
| 20260507185705 | 63 | 250 | 6.1 | 13.0 | 0.00 | 0.00 | 0.00 | 61 | 1009.2 |
| 20260507185204 | 63 | 223 | 7.0 | 13.9 | 0.00 | 0.00 | 0.00 | 60 | 1009.3 |
| 20260507184704 | 64 | 240 | 7.0 | 13.9 | 0.00 | 0.00 | 0.00 | 61 | 1009.3 |
| 20260507184204 | 64 | 239 | 7.8 | 13.9 | 0.00 | 0.00 | 0.00 | 60 | 1009.2 |
| 20260507183705 | 65 | 236 | 7.0 | 13.9 | 0.00 | 0.00 | 0.00 | 59 | 1009.1 |
| 20260507183205 | 65 | 244 | 7.8 | 13.9 | 0.00 | 0.00 | 0.00 | 57 | 1009.0 |
| 20260507182704 | 65 | 268 | 8.7 | 13.9 | 0.00 | 0.00 | 0.00 | 56 | 1009.0 |
| 20260507182205 | 65 | 238 | 8.7 | 13.9 | 0.00 | 0.00 | 0.00 | 56 | 1008.9 |
| 20260507181704 | 65 | 249 | 7.8 | 13.9 | 0.00 | 0.00 | 0.00 | 55 | 1008.9 |
| 20260507181205 | 66 | 227 | 7.8 | 13.0 | 0.00 | 0.00 | 0.00 | 54 | 1008.9 |
| 20260507180705 | 66 | 231 | 7.8 | 13.0 | 0.00 | 0.00 | 0.00 | 54 | 1008.8 |
| 20260507180205 | 66 | 236 | 7.8 | 14.8 | 0.00 | 0.00 | 0.00 | 53 | 1008.9 |
| 20260507175704 | 67 | 226 | 8.7 | 14.8 | 0.00 | 0.00 | 0.00 | 53 | 1008.8 |
| 20260507175205 | 67 | 224 | 7.8 | 14.8 | 0.00 | 0.00 | 0.00 | 54 | 1008.7 |
| 20260507174704 | 67 | 197 | 7.0 | 13.9 | 0.00 | 0.00 | 0.00 | 53 | 1008.7 |
| 20260507174205 | 68 | 230 | 7.8 | 13.9 | 0.00 | 0.00 | 0.00 | 52 | 1008.6 |
| 20260507173704 | 68 | 243 | 8.7 | 13.0 | 0.00 | 0.00 | 0.00 | 52 | 1008.6 |
| 20260507172705 | 68 | 237 | 7.8 | 13.9 | 0.00 | 0.00 | 0.00 | 53 | 1008.5 |
| 20260507172204 | 68 | 225 | 7.8 | 13.9 | 0.00 | 0.00 | 0.00 | 53 | 1008.5 |
| 20260507171705 | 69 | 223 | 7.8 | 13.9 | 0.00 | 0.00 | 0.00 | 51 | 1008.4 |
| 20260507171204 | 69 | 245 | 7.8 | 14.8 | 0.00 | 0.00 | 0.00 | 52 | 1008.3 |
| 20260507170705 | 69 | 214 | 7.8 | 14.8 | 0.00 | 0.00 | 0.00 | 50 | 1008.3 |
| 20260507170206 | 69 | 241 | 7.0 | 13.0 | 0.00 | 0.00 | 0.00 | 50 | 1008.2 |
| 20260507165704 | 69 | 238 | 7.8 | 13.0 | 0.00 | 0.00 | 0.00 | 50 | 1008.1 |
| 20260507165204 | 69 | 274 | 7.8 | 17.4 | 0.00 | 0.00 | 0.00 | 49 | 1008.1 |
| 20260507164705 | 70 | 258 | 7.8 | 17.4 | 0.00 | 0.00 | 0.00 | 48 | 1008.2 |
| 20260507164204 | 70 | 219 | 7.8 | 13.9 | 0.00 | 0.00 | 0.00 | 48 | 1008.1 |
| 20260507163704 | 70 | 207 | 7.8 | 13.9 | 0.00 | 0.00 | 0.00 | 47 | 1008.1 |
| 20260507163205 | 70 | 253 | 7.8 | 13.9 | 0.00 | 0.00 | 0.00 | 47 | 1008.2 |
| 20260507162705 | 71 | 227 | 7.8 | 14.8 | 0.00 | 0.00 | 0.00 | 46 | 1008.2 |
| 20260507162204 | 71 | 223 | 7.8 | 14.8 | 0.00 | 0.00 | 0.00 | 48 | 1008.1 |
| 20260507161704 | 71 | 206 | 7.8 | 13.9 | 0.00 | 0.00 | 0.00 | 48 | 1008.1 |
| 20260507161205 | 71 | 207 | 8.7 | 14.8 | 0.00 | 0.00 | 0.00 | 47 | 1008.0 |
| 20260507160705 | 71 | 244 | 7.8 | 15.6 | 0.00 | 0.00 | 0.00 | 45 | 1008.0 |
| 20260507160205 | 71 | 279 | 8.7 | 15.6 | 0.00 | 0.00 | 0.00 | 45 | 1008.0 |
| 20260507155705 | 71 | 229 | 8.7 | 13.9 | 0.00 | 0.00 | 0.00 | 46 | 1007.8 |
| 20260507155204 | 71 | 225 | 7.8 | 13.9 | 0.00 | 0.00 | 0.00 | 46 | 1007.9 |
| 20260507154704 | 72 | 226 | 7.8 | 13.9 | 0.00 | 0.00 | 0.00 | 46 | 1008.1 |
| 20260507154204 | 72 | 202 | 7.0 | 13.9 | 0.00 | 0.00 | 0.00 | 45 | 1008.0 |
| 20260507153705 | 72 | 253 | 6.1 | 12.2 | 0.00 | 0.00 | 0.00 | 42 | 1008.0 |
| 20260507152705 | 72 | 260 | 7.0 | 14.8 | 0.00 | 0.00 | 0.00 | 42 | 1008.0 |
| 20260507152205 | 72 | 230 | 7.0 | 14.8 | 0.00 | 0.00 | 0.00 | 41 | 1008.0 |
| 20260507151205 | 72 | 225 | 5.2 | 11.3 | 0.00 | 0.00 | 0.00 | 45 | 1008.1 |
| 20260507150704 | 72 | 252 | 6.1 | 13.0 | 0.00 | 0.00 | 0.00 | 43 | 1008.1 |
| 20260507150205 | 71 | 186 | 7.0 | 13.0 | 0.00 | 0.00 | 0.00 | 45 | 1008.1 |
| 20260507145705 | 71 | 240 | 7.0 | 13.0 | 0.00 | 0.00 | 0.00 | 46 | 1008.2 |
| 20260507145205 | 72 | 213 | 6.1 | 12.2 | 0.00 | 0.00 | 0.00 | 47 | 1008.2 |
| 20260507144704 | 72 | 250 | 7.0 | 13.9 | 0.00 | 0.00 | 0.00 | 45 | 1008.2 |
| 20260507144205 | 71 | 233 | 7.8 | 13.9 | 0.00 | 0.00 | 0.00 | 44 | 1008.2 |
| 20260507143705 | 72 | 250 | 7.8 | 13.9 | 0.00 | 0.00 | 0.00 | 44 | 1008.2 |
| 20260507143205 | 71 | 189 | 7.0 | 13.9 | 0.00 | 0.00 | 0.00 | 47 | 1008.4 |